Weather History for Fremont, MI

Change the Weather History Date:

Wednesday, May 1, 2013

  Actual Average (KMKG) Record (KMKG)
Temperature  
Mean Temperature 71 °F 52 °F  
Max Temperature 82 °F 62 °F 85 °F (1951)
Min Temperature 60 °F 43 °F 27 °F (1945)
Degree Days  
Heating Degree Days 0 13  
Month to date heating degree days 13  
Since 1 July heating degree days 6231  
Cooling Degree Days 6 0  
Month to date cooling degree days 0  
Year to date cooling degree days 4  
Growing Degree Days 21 (Base 50)    
Moisture  
Dew Point 53 °F    
Average Humidity 56    
Maximum Humidity 88    
Minimum Humidity 30    
Precipitation  
Precipitation 0.00 in 0.10 in 1.19 in (2003)
Month to date precipitation 0.10  
Year to date precipitation 9.12  
Snow  
Snow 0.00 in 0.00 in T in (1994)
Month to date snowfall 0.0  
Since 1 July snowfall 93.7  
Snow Depth -    
Sea Level Pressure  
Sea Level Pressure 30.09 in    
Wind  
Wind Speed 7 mph (South)    
Max Wind Speed 15 mph    
Max Gust Speed 20 mph    
Visibility 9 miles    
Events      
T = Trace of Precipitation, MM = Missing Value Source: NWS Daily Summary

Daily Weather History Graph

Daily Weather History Graph

Search for Another Location

Airport:

Trip Planner

Search our weather history database for the weather conditions in past years. The results will help you decide how hot, cold, wet, or windy it might be!

Date:

Astronomy

May. 01, 2013 Rise Set
Actual Time 6:36 AM EDT 8:46 PM EDT
Civil Twilight 6:05 AM EDT 9:17 PM EDT
Nautical Twilight 5:26 AM EDT 9:56 PM EDT
Astronomical Twilight 4:44 AM EDT 10:39 PM EDT
Moon 1:55 AM EDT (5/1) 12:14 PM EDT (5/1)
Length of Visible Light 15h 12m
Length of Day
14h 09m
Waning Gibbous, 59% of the Moon is Illuminated
May 1
Waning Gibbous
May 2
Last Quarter
May 9
New
May 18
First Quarter
May 25
Full

Hourly Weather History & Observations

Time (EDT) Temp. Dew Point Humidity Pressure Visibility Wind Dir Wind Speed Gust Speed Precip Events Conditions
12:15 AM 69.4 °F 58.1 °F 67% 29.95 in 10.0 mi SSE 9.2 mph - N/A   Clear
12:34 AM 69.6 °F 58.1 °F 67% 29.96 in 10.0 mi SE 8.1 mph - N/A   Clear
12:55 AM 69.1 °F 58.1 °F 68% 29.96 in 10.0 mi SSE 9.2 mph - N/A   Clear
1:15 AM 69.3 °F 58.1 °F 68% 29.97 in 10.0 mi SSE 9.2 mph - N/A   Clear
1:35 AM 69.1 °F 58.1 °F 68% 29.98 in 10.0 mi SSE 9.2 mph - N/A   Clear
1:55 AM 68.5 °F 58.1 °F 69% 29.99 in 10.0 mi SSE 6.9 mph 16.1 mph N/A   Clear
2:15 AM 67.5 °F 58.1 °F 72% 29.99 in 10.0 mi SSE 6.9 mph - N/A   Clear
2:35 AM 66.9 °F 58.3 °F 74% 30.00 in 10.0 mi SSE 5.8 mph - N/A   Clear
3:15 AM 65.8 °F 58.3 °F 77% 30.01 in 10.0 mi SSE 5.8 mph - N/A   Clear
3:35 AM 65.3 °F 58.1 °F 77% 30.01 in 10.0 mi SE 4.6 mph - N/A   Clear
4:15 AM 63.9 °F 57.9 °F 81% 30.02 in 10.0 mi SE 3.5 mph - N/A   Clear
4:35 AM 62.8 °F 57.4 °F 82% 30.02 in 10.0 mi ESE 3.5 mph - N/A   Clear
4:55 AM 62.8 °F 57.6 °F 83% 30.02 in 10.0 mi ESE 4.6 mph - N/A   Clear
5:15 AM 62.6 °F 57.4 °F 83% 30.03 in 10.0 mi SE 3.5 mph - N/A   Clear
5:35 AM 62.6 °F 57.4 °F 83% 30.04 in 10.0 mi Calm Calm - N/A   Clear
5:55 AM 60.8 °F 57.2 °F 88% 30.04 in 10.0 mi Calm Calm - N/A   Clear
6:15 AM 61.0 °F 57.4 °F 88% 30.05 in 10.0 mi ESE 3.5 mph - N/A   Clear
6:35 AM 60.4 °F 57.0 °F 88% 30.05 in 10.0 mi ESE 3.5 mph - N/A   Clear
6:54 AM 60.8 °F 56.8 °F 87% 30.06 in 10.0 mi SE 4.6 mph - N/A   Clear
7:15 AM 61.7 °F 56.8 °F 84% 30.07 in 10.0 mi SE 6.9 mph - N/A   Clear
7:35 AM 62.6 °F 56.8 °F 81% 30.08 in 10.0 mi SE 3.5 mph - N/A   Clear
7:55 AM 63.5 °F 56.7 °F 78% 30.09 in 10.0 mi SSE 4.6 mph - N/A   Clear
8:15 AM 64.8 °F 56.7 °F 75% 30.09 in 10.0 mi SSE 4.6 mph - N/A   Clear
8:35 AM 66.6 °F 56.7 °F 70% 30.10 in 10.0 mi SSE 4.6 mph - N/A   Clear
9:15 AM 68.4 °F 56.7 °F 66% 30.11 in 10.0 mi SSE 5.8 mph - N/A   Clear
9:35 AM 69.6 °F 57.2 °F 65% 30.11 in 10.0 mi South 6.9 mph - N/A   Clear
9:55 AM 71.4 °F 57.6 °F 62% 30.11 in 10.0 mi South 8.1 mph - N/A   Clear
10:15 AM 73.2 °F 57.0 °F 57% 30.11 in 10.0 mi South 6.9 mph - N/A   Clear
10:35 AM 75.4 °F 54.3 °F 48% 30.11 in 10.0 mi South 9.2 mph - N/A   Clear
10:54 AM 76.3 °F 53.2 °F 45% 30.12 in 10.0 mi SSW 10.4 mph - N/A   Clear
11:15 AM 77.0 °F 52.2 °F 42% 30.12 in 7.0 mi SSW 10.4 mph 16.1 mph N/A   Clear
11:35 AM 77.9 °F 51.4 °F 40% 30.13 in 5.0 mi SSW 9.2 mph - N/A   Haze
12:15 PM 78.8 °F 47.8 °F 34% 30.13 in 7.0 mi SSW 12.7 mph 17.3 mph N/A   Clear
12:34 PM 79.3 °F 47.7 °F 33% 30.12 in 7.0 mi South 10.4 mph - N/A   Clear
12:55 PM 79.7 °F 47.1 °F 32% 30.13 in 7.0 mi SSW 9.2 mph - N/A   Clear
1:15 PM 79.9 °F 47.8 °F 32% 30.13 in 7.0 mi SSW 9.2 mph - N/A   Clear
1:35 PM 80.2 °F 47.3 °F 31% 30.13 in 7.0 mi SSW 10.4 mph - N/A   Clear
2:15 PM 80.6 °F 47.1 °F 31% 30.13 in 7.0 mi SSW 10.4 mph - N/A   Clear
2:35 PM 80.6 °F 48.0 °F 32% 30.13 in 7.0 mi South 15.0 mph 19.6 mph N/A   Clear
2:55 PM 81.0 °F 47.7 °F 31% 30.13 in 7.0 mi South 11.5 mph - N/A   Clear
3:14 PM 80.8 °F 47.7 °F 31% 30.13 in 7.0 mi South 10.4 mph - N/A   Clear
3:35 PM 80.8 °F 46.9 °F 30% 30.13 in 7.0 mi SSW 9.2 mph - N/A   Clear
3:55 PM 81.7 °F 48.0 °F 31% 30.12 in 10.0 mi SW 9.2 mph - N/A   Clear
4:15 PM 82.0 °F 48.9 °F 31% 30.12 in 7.0 mi SSE 9.2 mph 19.6 mph N/A   Clear
4:35 PM 82.0 °F 49.6 °F 32% 30.12 in 7.0 mi South 12.7 mph - N/A   Clear
4:54 PM 82.0 °F 49.3 °F 32% 30.12 in 7.0 mi South 5.8 mph - N/A   Clear
5:15 PM 82.0 °F 49.5 °F 32% 30.12 in 7.0 mi South 5.8 mph - N/A   Clear
5:35 PM 81.5 °F 49.5 °F 33% 30.12 in 7.0 mi SSW 3.5 mph - N/A   Clear
6:15 PM 81.0 °F 49.5 °F 33% 30.12 in 7.0 mi SSW 8.1 mph - N/A   Clear
6:35 PM 80.2 °F 49.6 °F 34% 30.12 in 7.0 mi SSW 8.1 mph - N/A   Clear
6:55 PM 79.9 °F 50.0 °F 35% 30.12 in 7.0 mi SW 5.8 mph - N/A   Clear
7:15 PM 79.0 °F 49.5 °F 35% 30.13 in 10.0 mi SW 4.6 mph - N/A   Clear
7:34 PM 78.6 °F 50.4 °F 37% 30.13 in 7.0 mi SW 4.6 mph - N/A   Clear
7:55 PM 76.3 °F 51.8 °F 42% 30.14 in 7.0 mi West 3.5 mph - N/A   Clear
8:15 PM 74.3 °F 52.0 °F 46% 30.14 in 7.0 mi West 4.6 mph - N/A   Clear
8:34 PM 72.7 °F 52.5 °F 49% 30.15 in 7.0 mi West 3.5 mph - N/A   Clear
8:55 PM 71.2 °F 52.0 °F 51% 30.16 in 7.0 mi West 3.5 mph - N/A   Clear
9:14 PM 70.7 °F 51.6 °F 51% 30.17 in 10.0 mi Calm Calm - N/A   Clear
9:35 PM 70.5 °F 50.7 °F 49% 30.17 in 10.0 mi Calm Calm - N/A   Clear
9:55 PM 68.5 °F 50.5 °F 53% 30.18 in 10.0 mi Calm Calm - N/A   Clear
10:35 PM 64.9 °F 53.6 °F 67% 30.18 in 10.0 mi Calm Calm - N/A   Overcast
10:55 PM 65.7 °F 53.4 °F 65% 30.18 in 10.0 mi Calm Calm - N/A   Overcast
11:14 PM 66.4 °F 52.7 °F 61% 30.18 in 10.0 mi ENE 3.5 mph - N/A   Scattered Clouds
11:35 PM 63.3 °F 54.1 °F 72% 30.18 in 10.0 mi ENE 3.5 mph - N/A   Clear
11:54 PM 64.8 °F 53.8 °F 68% 30.18 in 10.0 mi ENE 5.8 mph - N/A   Clear